Powrót do katalogu

STARLINK-5816

AktywnyŁącznośćVLEO
NORAD 55778·PAYLOAD·🇺🇸 United States

Wystrzelony Mar 3, 2023 z Vandenberg Space Force Base

Loading…

Następne Przeloty (najbliższe 24 godziny)

TLE

ŚwieżeSource: CelesTrak SupGP

Epoka: Sep 14, 2026, 21:14 UTC

1 55778C 23028AP  26257.88520833  .00004685  00000+0  39279-3 0  2578
2 55778  70.0002 107.2846 0003049 276.0366 181.8065 14.98310543    15

Śledź STARLINK-5816 w czasie rzeczywistym z AllMySat

Download on the App Store